| time (UTC) | temp C | wind direction | speed KPH | gust KPH | rain 1hr cm | rain 24hr cm | rain mn cm | humidity % | barometer mb |
| 20260509035025 | 12 | 0 | 0.0 | 1.6 | 0.00 | 0.00 | 0.00 | 72 | 1022.6 |
| 20260509034543 | 12 | 132 | 0.0 | 3.2 | 0.00 | 0.00 | 0.00 | 72 | 1022.5 |
| 20260509034024 | 12 | 0 | 0.0 | 4.8 | 0.00 | 0.00 | 0.00 | 72 | 1022.4 |
| 20260509033524 | 12 | 0 | 0.0 | 4.8 | 0.00 | 0.00 | 0.00 | 72 | 1022.3 |
| 20260509033043 | 12 | 162 | 0.0 | 4.8 | 0.00 | 0.00 | 0.00 | 71 | 1022.3 |
| 20260509032523 | 13 | 154 | 1.6 | 8.0 | 0.00 | 0.00 | 0.00 | 71 | 1022.3 |
| 20260509032024 | 13 | 97 | 0.0 | 9.7 | 0.00 | 0.00 | 0.00 | 70 | 1022.3 |
| 20260509031543 | 13 | 153 | 0.0 | 9.7 | 0.00 | 0.00 | 0.00 | 69 | 1022.3 |
| 20260509031024 | 13 | 150 | 0.0 | 8.0 | 0.00 | 0.00 | 0.00 | 69 | 1022.3 |
| 20260509030524 | 13 | 0 | 0.0 | 8.0 | 0.00 | 0.00 | 0.00 | 68 | 1022.3 |
| 20260509030038 | 13 | 227 | 1.6 | 8.0 | 0.00 | 0.00 | 0.00 | 67 | 1022.2 |
| 20260509025524 | 14 | 216 | 1.6 | 11.3 | 0.00 | 0.00 | 0.00 | 66 | 1022.2 |
| 20260509025024 | 14 | 235 | 1.6 | 12.9 | 0.00 | 0.00 | 0.00 | 66 | 1022.1 |
| 20260509024538 | 14 | 0 | 3.2 | 12.9 | 0.00 | 0.00 | 0.00 | 66 | 1022.1 |
| 20260509024024 | 14 | 170 | 3.2 | 11.3 | 0.00 | 0.00 | 0.00 | 66 | 1022.1 |
| 20260509023525 | 14 | 270 | 3.2 | 11.3 | 0.00 | 0.00 | 0.00 | 65 | 1021.9 |
| 20260509023040 | 15 | 135 | 1.6 | 17.7 | 0.00 | 0.00 | 0.00 | 64 | 1021.9 |
| 20260509022524 | 15 | 153 | 4.8 | 17.7 | 0.00 | 0.00 | 0.00 | 64 | 1022.0 |
| 20260509022025 | 15 | 198 | 4.8 | 11.3 | 0.00 | 0.00 | 0.00 | 64 | 1021.9 |
| 20260509021545 | 15 | 128 | 3.2 | 9.7 | 0.00 | 0.00 | 0.00 | 64 | 1021.9 |
| 20260509021024 | 15 | 223 | 4.8 | 9.7 | 0.00 | 0.00 | 0.00 | 64 | 1021.9 |
| 20260509020524 | 14 | 172 | 1.6 | 9.7 | 0.00 | 0.00 | 0.00 | 65 | 1022.0 |
| 20260509020041 | 14 | 129 | 3.2 | 14.5 | 0.00 | 0.00 | 0.00 | 64 | 1021.9 |
| 20260509015524 | 14 | 90 | 3.2 | 14.5 | 0.00 | 0.00 | 0.00 | 63 | 1021.9 |
| 20260509015024 | 14 | 269 | 1.6 | 14.5 | 0.00 | 0.00 | 0.00 | 64 | 1022.0 |
| 20260509014545 | 14 | 168 | 1.6 | 14.5 | 0.00 | 0.00 | 0.00 | 64 | 1022.0 |
| 20260509014024 | 14 | 206 | 1.6 | 17.7 | 0.00 | 0.00 | 0.00 | 64 | 1021.9 |
| 20260509013524 | 14 | 95 | 6.4 | 24.1 | 0.00 | 0.00 | 0.00 | 63 | 1021.9 |
| 20260509013050 | 15 | 142 | 4.8 | 24.1 | 0.00 | 0.00 | 0.00 | 62 | 1022.0 |
| 20260509012524 | 15 | 137 | 6.4 | 19.3 | 0.00 | 0.00 | 0.00 | 61 | 1022.0 |
| 20260509012025 | 15 | 313 | 3.2 | 19.3 | 0.00 | 0.00 | 0.00 | 62 | 1021.9 |
| 20260509011543 | 15 | 276 | 1.6 | 19.3 | 0.00 | 0.00 | 0.00 | 62 | 1021.9 |
| 20260509011024 | 15 | 101 | 3.2 | 14.5 | 0.00 | 0.00 | 0.00 | 61 | 1021.9 |
| 20260509010524 | 15 | 131 | 3.2 | 14.5 | 0.00 | 0.00 | 0.00 | 61 | 1021.9 |
| 20260509010037 | 15 | 257 | 3.2 | 14.5 | 0.00 | 0.00 | 0.00 | 61 | 1022.0 |
| 20260509005525 | 15 | 107 | 4.8 | 14.5 | 0.00 | 0.00 | 0.00 | 60 | 1021.9 |
| 20260509005028 | 15 | 257 | 3.2 | 17.7 | 0.00 | 0.00 | 0.00 | 61 | 1021.8 |
| 20260509004543 | 15 | 168 | 4.8 | 17.7 | 0.00 | 0.00 | 0.00 | 60 | 1021.8 |
| 20260509004024 | 15 | 184 | 3.2 | 16.1 | 0.00 | 0.00 | 0.00 | 60 | 1021.9 |
| 20260509003524 | 15 | 223 | 6.4 | 16.1 | 0.00 | 0.00 | 0.00 | 59 | 1021.9 |
| 20260509003042 | 16 | 275 | 4.8 | 14.5 | 0.00 | 0.00 | 0.00 | 59 | 1021.9 |
| 20260509002524 | 15 | 242 | 4.8 | 16.1 | 0.00 | 0.00 | 0.00 | 60 | 1021.8 |
| 20260509002024 | 16 | 138 | 4.8 | 20.9 | 0.00 | 0.00 | 0.00 | 60 | 1021.9 |
| 20260509001541 | 15 | 115 | 9.7 | 20.9 | 0.00 | 0.00 | 0.00 | 60 | 1021.9 |
| 20260509001024 | 15 | 194 | 8.0 | 27.4 | 0.00 | 0.00 | 0.00 | 61 | 1021.8 |
| 20260509000524 | 16 | 160 | 9.7 | 27.4 | 0.00 | 0.00 | 0.00 | 58 | 1021.9 |
| 20260509000038 | 16 | 140 | 4.8 | 20.9 | 0.00 | 0.00 | 0.00 | 59 | 1021.9 |
| 20260508235524 | 15 | 168 | 8.0 | 20.9 | 0.00 | 0.00 | 0.00 | 58 | 1021.8 |
| 20260508235025 | 16 | 130 | 4.8 | 22.5 | 0.00 | 0.00 | 0.00 | 59 | 1021.8 |
| 20260508234538 | 15 | 209 | 8.0 | 22.5 | 0.00 | 0.00 | 0.00 | 60 | 1021.8 |
| 20260508234024 | 15 | 117 | 4.8 | 19.3 | 0.00 | 0.00 | 0.00 | 60 | 1021.8 |
| 20260508233525 | 15 | 229 | 6.4 | 19.3 | 0.00 | 0.00 | 0.00 | 61 | 1021.7 |
| 20260508233047 | 15 | 248 | 6.4 | 19.3 | 0.00 | 0.00 | 0.00 | 61 | 1021.7 |
| 20260508232524 | 15 | 245 | 6.4 | 22.5 | 0.00 | 0.00 | 0.00 | 62 | 1021.7 |
| 20260508232024 | 15 | 214 | 4.8 | 22.5 | 0.00 | 0.00 | 0.00 | 62 | 1021.7 |
| 20260508231546 | 15 | 171 | 6.4 | 22.5 | 0.00 | 0.00 | 0.00 | 62 | 1021.7 |
| 20260508231025 | 15 | 119 | 6.4 | 20.9 | 0.00 | 0.00 | 0.00 | 62 | 1021.8 |
| 20260508230524 | 15 | 155 | 8.0 | 24.1 | 0.00 | 0.00 | 0.00 | 61 | 1021.7 |
| 20260508230053 | 15 | 137 | 8.0 | 24.1 | 0.00 | 0.00 | 0.00 | 61 | 1021.7 |
| 20260508225524 | 15 | 117 | 12.9 | 22.5 | 0.00 | 0.00 | 0.00 | 60 | 1021.7 |
| 20260508225023 | 15 | 138 | 8.0 | 22.5 | 0.00 | 0.00 | 0.00 | 59 | 1021.6 |
| 20260508224542 | 15 | 136 | 3.2 | 25.7 | 0.00 | 0.00 | 0.00 | 61 | 1021.7 |
| 20260508224024 | 15 | 161 | 9.7 | 27.4 | 0.00 | 0.00 | 0.00 | 60 | 1021.7 |
| 20260508223524 | 15 | 111 | 11.3 | 27.4 | 0.00 | 0.00 | 0.00 | 60 | 1021.6 |
| 20260508223038 | 16 | 89 | 8.0 | 22.5 | 0.00 | 0.00 | 0.00 | 58 | 1021.7 |
| 20260508222524 | 16 | 34 | 9.7 | 22.5 | 0.00 | 0.00 | 0.00 | 57 | 1021.7 |
| 20260508222025 | 16 | 269 | 6.4 | 22.5 | 0.00 | 0.00 | 0.00 | 58 | 1021.5 |
| 20260508221537 | 16 | 111 | 8.0 | 20.9 | 0.00 | 0.00 | 0.00 | 57 | 1021.5 |
| 20260508221027 | 16 | 135 | 3.2 | 20.9 | 0.00 | 0.00 | 0.00 | 60 | 1021.4 |
| 20260508220525 | 16 | 246 | 8.0 | 20.9 | 0.00 | 0.00 | 0.00 | 60 | 1021.5 |
| 20260508220038 | 16 | 97 | 8.0 | 20.9 | 0.00 | 0.00 | 0.00 | 60 | 1021.6 |
| 20260508215524 | 16 | 267 | 6.4 | 20.9 | 0.00 | 0.00 | 0.00 | 60 | 1021.6 |
| 20260508215024 | 16 | 234 | 8.0 | 19.3 | 0.00 | 0.00 | 0.00 | 59 | 1021.5 |
| 20260508214545 | 16 | 225 | 9.7 | 19.3 | 0.00 | 0.00 | 0.00 | 58 | 1021.5 |
| 20260508214025 | 16 | 171 | 8.0 | 20.9 | 0.00 | 0.00 | 0.00 | 57 | 1021.5 |
| 20260508213524 | 16 | 226 | 6.4 | 20.9 | 0.00 | 0.00 | 0.00 | 60 | 1021.5 |
| 20260508213042 | 16 | 242 | 4.8 | 22.5 | 0.00 | 0.00 | 0.00 | 60 | 1021.5 |
| 20260508212524 | 16 | 148 | 8.0 | 22.5 | 0.00 | 0.00 | 0.00 | 60 | 1021.4 |
| 20260508212025 | 16 | 174 | 6.4 | 17.7 | 0.00 | 0.00 | 0.00 | 60 | 1021.4 |
| 20260508211542 | 16 | 258 | 6.4 | 19.3 | 0.00 | 0.00 | 0.00 | 60 | 1021.4 |
| 20260508211028 | 15 | 163 | 6.4 | 24.1 | 0.00 | 0.00 | 0.00 | 60 | 1021.1 |
| 20260508210524 | 15 | 242 | 6.4 | 24.1 | 0.00 | 0.00 | 0.00 | 62 | 1021.1 |
| 20260508210041 | 15 | 181 | 8.0 | 24.1 | 0.00 | 0.00 | 0.00 | 61 | 1021.1 |
| 20260508205524 | 15 | 123 | 6.4 | 25.7 | 0.00 | 0.00 | 0.00 | 62 | 1021.3 |
| 20260508205027 | 15 | 265 | 8.0 | 25.7 | 0.00 | 0.00 | 0.00 | 63 | 1021.1 |
| 20260508204545 | 15 | 161 | 4.8 | 22.5 | 0.00 | 0.00 | 0.00 | 62 | 1021.1 |
| 20260508204024 | 15 | 194 | 8.0 | 29.0 | 0.00 | 0.00 | 0.00 | 62 | 1021.1 |
| 20260508203524 | 15 | 252 | 8.0 | 29.0 | 0.00 | 0.00 | 0.00 | 62 | 1021.0 |
| 20260508203051 | 15 | 230 | 9.7 | 29.0 | 0.00 | 0.00 | 0.00 | 62 | 1020.9 |
| 20260508202525 | 15 | 173 | 6.4 | 20.9 | 0.00 | 0.00 | 0.00 | 63 | 1020.9 |
| 20260508202024 | 15 | 140 | 4.8 | 24.1 | 0.00 | 0.00 | 0.00 | 63 | 1020.8 |
| 20260508201541 | 15 | 59 | 8.0 | 24.1 | 0.00 | 0.00 | 0.00 | 63 | 1020.8 |
| 20260508201024 | 15 | 222 | 6.4 | 19.3 | 0.00 | 0.00 | 0.00 | 63 | 1020.7 |
| 20260508200524 | 15 | 251 | 4.8 | 16.1 | 0.00 | 0.00 | 0.00 | 65 | 1020.7 |
| 20260508200050 | 14 | 173 | 4.8 | 24.1 | 0.00 | 0.00 | 0.00 | 68 | 1020.7 |
| 20260508195528 | 13 | 233 | 6.4 | 24.1 | 0.00 | 0.00 | 0.00 | 68 | 1020.7 |
| 20260508195027 | 13 | 251 | 8.0 | 24.1 | 0.00 | 0.00 | 0.00 | 69 | 1020.7 |
| 20260508194540 | 13 | 97 | 8.0 | 19.3 | 0.00 | 0.00 | 0.00 | 70 | 1020.7 |
| 20260508194025 | 13 | 170 | 6.4 | 22.5 | 0.00 | 0.00 | 0.00 | 71 | 1020.7 |
| 20260508193524 | 13 | 269 | 6.4 | 22.5 | 0.00 | 0.00 | 0.00 | 72 | 1020.6 |
| 20260508193037 | 12 | 136 | 11.3 | 19.3 | 0.00 | 0.00 | 0.00 | 72 | 1020.7 |
| 20260508192524 | 13 | 164 | 6.4 | 20.9 | 0.00 | 0.00 | 0.00 | 72 | 1020.6 |
| 20260508192025 | 13 | 156 | 6.4 | 20.9 | 0.00 | 0.00 | 0.00 | 72 | 1020.5 |
| 20260508191546 | 13 | 165 | 4.8 | 19.3 | 0.00 | 0.00 | 0.00 | 73 | 1020.5 |
| 20260508191025 | 12 | 126 | 6.4 | 19.3 | 0.00 | 0.00 | 0.00 | 74 | 1020.5 |
| 20260508190526 | 12 | 184 | 4.8 | 20.9 | 0.00 | 0.00 | 0.00 | 73 | 1020.5 |
| 20260508190038 | 12 | 190 | 3.2 | 20.9 | 0.00 | 0.00 | 0.00 | 74 | 1020.5 |
| 20260508185524 | 12 | 129 | 9.7 | 20.9 | 0.00 | 0.00 | 0.00 | 73 | 1020.5 |
| 20260508185024 | 12 | 121 | 6.4 | 20.9 | 0.00 | 0.00 | 0.00 | 73 | 1020.5 |
| 20260508184540 | 13 | 107 | 4.8 | 19.3 | 0.00 | 0.00 | 0.00 | 73 | 1020.4 |
| 20260508184025 | 13 | 81 | 8.0 | 20.9 | 0.00 | 0.00 | 0.00 | 73 | 1020.2 |
| 20260508183527 | 13 | 148 | 4.8 | 20.9 | 0.00 | 0.00 | 0.00 | 72 | 1020.2 |
| 20260508183042 | 13 | 30 | 4.8 | 16.1 | 0.00 | 0.00 | 0.00 | 73 | 1020.0 |
| 20260508182524 | 13 | 284 | 4.8 | 17.7 | 0.00 | 0.00 | 0.00 | 74 | 1020.0 |
| 20260508182024 | 13 | 169 | 6.4 | 17.7 | 0.00 | 0.00 | 0.00 | 74 | 1019.9 |
| 20260508181540 | 13 | 199 | 6.4 | 17.7 | 0.00 | 0.00 | 0.00 | 73 | 1019.8 |
| 20260508181024 | 13 | 115 | 4.8 | 19.3 | 0.00 | 0.00 | 0.00 | 73 | 1019.9 |
| 20260508180526 | 13 | 175 | 6.4 | 22.5 | 0.00 | 0.00 | 0.00 | 73 | 1019.9 |
| 20260508180039 | 13 | 298 | 6.4 | 22.5 | 0.00 | 0.00 | 0.00 | 72 | 1019.9 |
| 20260508175525 | 13 | 105 | 9.7 | 22.5 | 0.00 | 0.00 | 0.00 | 71 | 1019.7 |
| 20260508175025 | 14 | 72 | 6.4 | 24.1 | 0.00 | 0.00 | 0.00 | 71 | 1019.7 |
| 20260508174546 | 14 | 111 | 8.0 | 24.1 | 0.00 | 0.00 | 0.00 | 70 | 1019.6 |
| 20260508174024 | 14 | 112 | 8.0 | 25.7 | 0.00 | 0.00 | 0.00 | 70 | 1019.5 |
| 20260508173525 | 14 | 240 | 6.4 | 25.7 | 0.00 | 0.00 | 0.00 | 71 | 1019.4 |
| 20260508173036 | 14 | 129 | 4.8 | 20.9 | 0.00 | 0.00 | 0.00 | 71 | 1019.2 |
| 20260508172527 | 14 | 300 | 6.4 | 20.9 | 0.00 | 0.00 | 0.00 | 71 | 1019.2 |
| 20260508172025 | 14 | 212 | 6.4 | 19.3 | 0.00 | 0.00 | 0.00 | 72 | 1019.0 |
| 20260508171541 | 13 | 173 | 4.8 | 22.5 | 0.00 | 0.00 | 0.00 | 73 | 1018.9 |
| 20260508171026 | 13 | 229 | 9.7 | 22.5 | 0.00 | 0.00 | 0.00 | 73 | 1018.9 |
| 20260508170526 | 13 | 345 | 6.4 | 22.5 | 0.00 | 0.00 | 0.00 | 73 | 1018.8 |
| 20260508170045 | 13 | 175 | 8.0 | 17.7 | 0.00 | 0.00 | 0.00 | 74 | 1018.8 |
| 20260508165524 | 13 | 175 | 6.4 | 16.1 | 0.00 | 0.00 | 0.00 | 74 | 1018.8 |
| 20260508165026 | 13 | 132 | 6.4 | 14.5 | 0.00 | 0.00 | 0.00 | 75 | 1018.9 |
| 20260508164543 | 13 | 163 | 4.8 | 19.3 | 0.00 | 0.00 | 0.00 | 75 | 1018.9 |
| 20260508164025 | 13 | 130 | 4.8 | 19.3 | 0.00 | 0.00 | 0.00 | 75 | 1018.8 |
| 20260508163524 | 13 | 166 | 6.4 | 17.7 | 0.00 | 0.00 | 0.00 | 75 | 1018.7 |
| 20260508163037 | 13 | 265 | 4.8 | 19.3 | 0.00 | 0.00 | 0.00 | 75 | 1018.7 |
| 20260508162525 | 13 | 304 | 6.4 | 19.3 | 0.00 | 0.00 | 0.00 | 75 | 1018.7 |
| 20260508162024 | 13 | 336 | 3.2 | 20.9 | 0.00 | 0.00 | 0.00 | 76 | 1018.6 |
| 20260508161544 | 13 | 148 | 4.8 | 20.9 | 0.00 | 0.00 | 0.00 | 76 | 1018.6 |
| 20260508161025 | 13 | 250 | 6.4 | 20.9 | 0.00 | 0.00 | 0.00 | 76 | 1018.6 |
| 20260508160524 | 13 | 164 | 6.4 | 19.3 | 0.00 | 0.00 | 0.00 | 77 | 1018.5 |
| 20260508160048 | 12 | 101 | 6.4 | 17.7 | 0.00 | 0.00 | 0.00 | 77 | 1018.5 |
| 20260508155524 | 12 | 258 | 6.4 | 17.7 | 0.00 | 0.00 | 0.00 | 77 | 1018.4 |
| 20260508155025 | 12 | 153 | 8.0 | 17.7 | 0.00 | 0.00 | 0.00 | 77 | 1018.3 |
| 20260508154548 | 12 | 135 | 3.2 | 14.5 | 0.00 | 0.00 | 0.00 | 77 | 1018.1 |
| 20260508154026 | 12 | 153 | 3.2 | 17.7 | 0.00 | 0.00 | 0.00 | 78 | 1018.3 |
| 20260508153525 | 12 | 203 | 6.4 | 17.7 | 0.00 | 0.00 | 0.00 | 78 | 1018.4 |
| 20260508153039 | 12 | 172 | 6.4 | 16.1 | 0.00 | 0.00 | 0.00 | 78 | 1018.5 |
| 20260508152524 | 12 | 205 | 4.8 | 14.5 | 0.00 | 0.00 | 0.00 | 80 | 1018.5 |
| 20260508152025 | 12 | 134 | 1.6 | 11.3 | 0.00 | 0.00 | 0.00 | 82 | 1018.5 |
| 20260508151537 | 12 | 143 | 4.8 | 11.3 | 0.00 | 0.00 | 0.00 | 82 | 1018.3 |
| 20260508151028 | 12 | 134 | 3.2 | 8.0 | 0.00 | 0.00 | 0.00 | 83 | 1018.3 |
| 20260508150525 | 12 | 0 | 0.0 | 6.4 | 0.00 | 0.00 | 0.00 | 84 | 1018.1 |
| 20260508150037 | 12 | 261 | 0.0 | 6.4 | 0.00 | 0.00 | 0.00 | 84 | 1018.0 |
| 20260508145525 | 12 | 165 | 0.0 | 9.7 | 0.00 | 0.00 | 0.00 | 84 | 1017.9 |
| 20260508145025 | 11 | 171 | 1.6 | 9.7 | 0.00 | 0.00 | 0.00 | 85 | 1017.9 |
| 20260508144548 | 11 | 166 | 1.6 | 8.0 | 0.00 | 0.00 | 0.00 | 85 | 1017.8 |
| 20260508144024 | 11 | 163 | 1.6 | 8.0 | 0.00 | 0.00 | 0.00 | 86 | 1017.7 |
| 20260508143525 | 11 | 134 | 3.2 | 8.0 | 0.00 | 0.00 | 0.00 | 86 | 1017.7 |
| 20260508143050 | 11 | 230 | 0.0 | 6.4 | 0.00 | 0.00 | 0.00 | 87 | 1017.6 |
| 20260508142528 | 11 | 240 | 1.6 | 6.4 | 0.00 | 0.00 | 0.00 | 88 | 1017.6 |
| 20260508142027 | 11 | 0 | 1.6 | 6.4 | 0.00 | 0.00 | 0.00 | 88 | 1017.4 |
| 20260508141540 | 11 | 249 | 1.6 | 6.4 | 0.00 | 0.00 | 0.00 | 88 | 1017.4 |
| 20260508141024 | 11 | 242 | 3.2 | 6.4 | 0.00 | 0.00 | 0.00 | 89 | 1017.4 |
| 20260508140526 | 11 | 259 | 1.6 | 6.4 | 0.00 | 0.00 | 0.00 | 89 | 1017.4 |
| 20260508140040 | 10 | 246 | 1.6 | 6.4 | 0.00 | 0.00 | 0.00 | 89 | 1017.4 |
| 20260508135524 | 10 | 275 | 1.6 | 6.4 | 0.00 | 0.00 | 0.00 | 89 | 1017.1 |
| 20260508135025 | 10 | 242 | 0.0 | 6.4 | 0.00 | 0.00 | 0.00 | 90 | 1017.1 |
| 20260508134541 | 10 | 177 | 0.0 | 6.4 | 0.00 | 0.00 | 0.00 | 90 | 1017.1 |
| 20260508134025 | 10 | 0 | 0.0 | 6.4 | 0.00 | 0.00 | 0.00 | 90 | 1017.0 |
| 20260508133525 | 10 | 232 | 1.6 | 6.4 | 0.00 | 0.00 | 0.00 | 90 | 1017.0 |
| 20260508133042 | 10 | 209 | 0.0 | 3.2 | 0.00 | 0.00 | 0.00 | 90 | 1017.1 |
| 20260508132527 | 10 | 249 | 0.0 | 6.4 | 0.00 | 0.00 | 0.00 | 90 | 1017.0 |
| 20260508132024 | 10 | 229 | 0.0 | 6.4 | 0.00 | 0.00 | 0.00 | 90 | 1017.0 |
| 20260508131547 | 10 | 244 | 1.6 | 6.4 | 0.00 | 0.00 | 0.00 | 90 | 1016.8 |
| 20260508131024 | 10 | 202 | 0.0 | 6.4 | 0.00 | 0.00 | 0.00 | 90 | 1016.8 |
| 20260508130526 | 10 | 0 | 0.0 | 1.6 | 0.00 | 0.00 | 0.00 | 90 | 1016.6 |
| 20260508130057 | 10 | 0 | 0.0 | 1.6 | 0.00 | 0.00 | 0.00 | 90 | 1016.6 |
| 20260508125528 | 10 | 0 | 0.0 | 1.6 | 0.00 | 0.00 | 0.00 | 90 | 1016.6 |
| 20260508125025 | 10 | 0 | 0.0 | 1.6 | 0.00 | 0.00 | 0.00 | 90 | 1016.7 |
| 20260508124547 | 10 | 0 | 0.0 | 1.6 | 0.00 | 0.00 | 0.00 | 90 | 1016.7 |
| 20260508124025 | 10 | 0 | 0.0 | 1.6 | 0.00 | 0.00 | 0.00 | 90 | 1016.7 |
| 20260508123525 | 10 | 0 | 0.0 | 1.6 | 0.00 | 0.00 | 0.00 | 90 | 1016.7 |
| 20260508123050 | 10 | 302 | 0.0 | 0.0 | 0.00 | 0.00 | 0.00 | 90 | 1016.6 |
| 20260508122524 | 10 | 303 | 0.0 | 0.0 | 0.00 | 0.00 | 0.00 | 90 | 1016.6 |
| 20260508122024 | 10 | 0 | 0.0 | 0.0 | 0.00 | 0.00 | 0.00 | 90 | 1016.6 |
| 20260508121545 | 10 | 0 | 0.0 | 0.0 | 0.00 | 0.00 | 0.00 | 90 | 1016.6 |
| 20260508121024 | 10 | 0 | 0.0 | 0.0 | 0.00 | 0.00 | 0.00 | 90 | 1016.6 |
| 20260508120524 | 10 | 0 | 0.0 | 0.0 | 0.00 | 0.00 | 0.00 | 91 | 1016.6 |
| 20260508120047 | 10 | 0 | 0.0 | 0.0 | 0.00 | 0.00 | 0.00 | 90 | 1016.6 |
| 20260508115524 | 10 | 0 | 0.0 | 0.0 | 0.00 | 0.00 | 0.00 | 90 | 1016.6 |
| 20260508115025 | 10 | 0 | 0.0 | 1.6 | 0.00 | 0.00 | 0.00 | 90 | 1016.5 |
| 20260508114547 | 10 | 0 | 0.0 | 1.6 | 0.00 | 0.00 | 0.00 | 91 | 1016.6 |
| 20260508114025 | 10 | 305 | 0.0 | 0.0 | 0.00 | 0.00 | 0.00 | 91 | 1016.6 |
| 20260508113524 | 10 | 0 | 0.0 | 0.0 | 0.00 | 0.00 | 0.00 | 90 | 1016.4 |
| 20260508113038 | 10 | 0 | 0.0 | 0.0 | 0.00 | 0.00 | 0.00 | 90 | 1016.5 |
| 20260508112525 | 10 | 0 | 0.0 | 0.0 | 0.00 | 0.00 | 0.00 | 90 | 1016.6 |
| 20260508112025 | 10 | 0 | 0.0 | 0.0 | 0.00 | 0.00 | 0.00 | 90 | 1016.6 |
| 20260508111549 | 10 | 0 | 0.0 | 0.0 | 0.00 | 0.00 | 0.00 | 90 | 1016.5 |
| 20260508111024 | 10 | 0 | 0.0 | 0.0 | 0.00 | 0.00 | 0.00 | 90 | 1016.5 |
| 20260508110524 | 10 | 0 | 0.0 | 0.0 | 0.00 | 0.00 | 0.00 | 89 | 1016.6 |
| 20260508110040 | 10 | 0 | 0.0 | 0.0 | 0.00 | 0.00 | 0.00 | 89 | 1016.6 |
| 20260508105525 | 10 | 0 | 0.0 | 0.0 | 0.00 | 0.00 | 0.00 | 89 | 1016.6 |
| 20260508105024 | 10 | 0 | 0.0 | 0.0 | 0.00 | 0.00 | 0.00 | 89 | 1016.6 |
| 20260508104547 | 10 | 0 | 0.0 | 0.0 | 0.00 | 0.00 | 0.00 | 89 | 1016.6 |
| 20260508104025 | 10 | 0 | 0.0 | 0.0 | 0.00 | 0.00 | 0.00 | 88 | 1016.6 |
| 20260508103524 | 10 | 0 | 0.0 | 0.0 | 0.00 | 0.00 | 0.00 | 88 | 1016.6 |
| 20260508103044 | 10 | 0 | 0.0 | 0.0 | 0.00 | 0.00 | 0.00 | 88 | 1016.6 |
| 20260508102525 | 11 | 0 | 0.0 | 0.0 | 0.00 | 0.00 | 0.00 | 87 | 1016.5 |
| 20260508102026 | 11 | 0 | 0.0 | 0.0 | 0.00 | 0.00 | 0.00 | 87 | 1016.5 |
| 20260508101544 | 11 | 0 | 0.0 | 0.0 | 0.00 | 0.00 | 0.00 | 87 | 1016.5 |
| 20260508101025 | 11 | 0 | 0.0 | 0.0 | 0.00 | 0.00 | 0.00 | 87 | 1016.5 |
| 20260508100524 | 11 | 0 | 0.0 | 0.0 | 0.00 | 0.00 | 0.00 | 87 | 1016.5 |
| 20260508100037 | 11 | 0 | 0.0 | 0.0 | 0.00 | 0.00 | 0.00 | 87 | 1016.5 |
| 20260508095525 | 11 | 0 | 0.0 | 0.0 | 0.00 | 0.00 | 0.00 | 86 | 1016.5 |
| 20260508095027 | 11 | 0 | 0.0 | 1.6 | 0.00 | 0.00 | 0.00 | 86 | 1016.4 |
| 20260508094545 | 11 | 0 | 0.0 | 1.6 | 0.00 | 0.00 | 0.00 | 86 | 1016.4 |
| 20260508094024 | 11 | 305 | 0.0 | 1.6 | 0.00 | 0.00 | 0.00 | 86 | 1016.4 |
| 20260508093525 | 11 | 0 | 0.0 | 0.0 | 0.00 | 0.00 | 0.00 | 86 | 1016.3 |
| 20260508093052 | 11 | 0 | 0.0 | 0.0 | 0.00 | 0.00 | 0.00 | 85 | 1016.2 |
| 20260508092524 | 11 | 0 | 0.0 | 0.0 | 0.00 | 0.00 | 0.00 | 85 | 1016.3 |
| 20260508092024 | 11 | 0 | 0.0 | 0.0 | 0.00 | 0.00 | 0.00 | 85 | 1016.3 |
| 20260508091553 | 11 | 0 | 0.0 | 0.0 | 0.00 | 0.00 | 0.00 | 85 | 1016.4 |
| 20260508091024 | 11 | 0 | 0.0 | 0.0 | 0.00 | 0.00 | 0.00 | 85 | 1016.4 |
| 20260508090525 | 11 | 0 | 0.0 | 0.0 | 0.00 | 0.00 | 0.00 | 84 | 1016.4 |
| 20260508090052 | 11 | 0 | 0.0 | 0.0 | 0.00 | 0.00 | 0.00 | 84 | 1016.5 |
| 20260508085524 | 11 | 0 | 0.0 | 0.0 | 0.00 | 0.00 | 0.00 | 83 | 1016.5 |
| 20260508085028 | 11 | 0 | 0.0 | 0.0 | 0.00 | 0.00 | 0.00 | 83 | 1016.5 |
| 20260508084539 | 11 | 0 | 0.0 | 0.0 | 0.00 | 0.00 | 0.00 | 83 | 1016.6 |
| 20260508084025 | 12 | 0 | 0.0 | 0.0 | 0.00 | 0.00 | 0.00 | 82 | 1016.6 |
| 20260508083524 | 12 | 0 | 0.0 | 0.0 | 0.00 | 0.00 | 0.00 | 82 | 1016.5 |
| 20260508083045 | 12 | 313 | 0.0 | 0.0 | 0.00 | 0.00 | 0.00 | 82 | 1016.6 |
| 20260508082527 | 12 | 0 | 0.0 | 0.0 | 0.00 | 0.00 | 0.00 | 82 | 1016.5 |
| 20260508082024 | 12 | 0 | 0.0 | 0.0 | 0.00 | 0.00 | 0.00 | 82 | 1016.6 |
| 20260508081549 | 12 | 0 | 0.0 | 0.0 | 0.00 | 0.00 | 0.00 | 82 | 1016.6 |
| 20260508081025 | 12 | 0 | 0.0 | 0.0 | 0.00 | 0.00 | 0.00 | 82 | 1016.8 |
| 20260508080524 | 12 | 0 | 0.0 | 0.0 | 0.00 | 0.00 | 0.00 | 82 | 1016.8 |
| 20260508080043 | 12 | 313 | 0.0 | 3.2 | 0.00 | 0.00 | 0.00 | 82 | 1016.7 |
| 20260508075524 | 12 | 0 | 0.0 | 3.2 | 0.00 | 0.00 | 0.00 | 81 | 1016.9 |
| 20260508075024 | 12 | 311 | 0.0 | 3.2 | 0.00 | 0.00 | 0.00 | 80 | 1016.8 |
| 20260508074539 | 12 | 0 | 0.0 | 3.2 | 0.00 | 0.00 | 0.00 | 79 | 1016.8 |
| 20260508074025 | 12 | 263 | 1.6 | 3.2 | 0.00 | 0.00 | 0.00 | 79 | 1016.8 |
| 20260508073528 | 12 | 0 | 0.0 | 3.2 | 0.00 | 0.00 | 0.00 | 80 | 1016.9 |
| 20260508073045 | 12 | 239 | 0.0 | 3.2 | 0.00 | 0.00 | 0.00 | 80 | 1016.8 |
| 20260508072524 | 12 | 242 | 0.0 | 3.2 | 0.00 | 0.00 | 0.00 | 79 | 1016.8 |
| 20260508072024 | 12 | 236 | 1.6 | 3.2 | 0.00 | 0.00 | 0.00 | 80 | 1016.8 |
| 20260508071551 | 12 | 0 | 1.6 | 4.8 | 0.00 | 0.00 | 0.00 | 79 | 1017.0 |
| 20260508071024 | 12 | 257 | 1.6 | 4.8 | 0.00 | 0.00 | 0.00 | 79 | 1017.0 |
| 20260508070527 | 12 | 263 | 1.6 | 3.2 | 0.00 | 0.00 | 0.00 | 79 | 1016.9 |
| 20260508070053 | 12 | 0 | 0.0 | 3.2 | 0.00 | 0.00 | 0.00 | 78 | 1016.9 |
| 20260508065527 | 12 | 0 | 0.0 | 1.6 | 0.00 | 0.00 | 0.00 | 79 | 1016.9 |
| 20260508065024 | 12 | 234 | 0.0 | 3.2 | 0.00 | 0.00 | 0.00 | 78 | 1017.0 |
| 20260508064543 | 12 | 240 | 0.0 | 3.2 | 0.00 | 0.00 | 0.00 | 78 | 1017.0 |
| 20260508064025 | 12 | 275 | 0.0 | 3.2 | 0.00 | 0.00 | 0.00 | 78 | 1017.0 |
| 20260508063525 | 12 | 0 | 0.0 | 3.2 | 0.00 | 0.00 | 0.00 | 78 | 1017.0 |
| 20260508063043 | 12 | 0 | 0.0 | 3.2 | 0.00 | 0.00 | 0.00 | 78 | 1016.9 |
| 20260508062524 | 12 | 258 | 0.0 | 3.2 | 0.00 | 0.00 | 0.00 | 78 | 1016.9 |
| 20260508062024 | 12 | 238 | 0.0 | 3.2 | 0.00 | 0.00 | 0.00 | 78 | 1016.9 |
| 20260508061538 | 12 | 0 | 0.0 | 3.2 | 0.00 | 0.00 | 0.00 | 78 | 1017.0 |
| 20260508061025 | 12 | 0 | 1.6 | 3.2 | 0.00 | 0.00 | 0.00 | 77 | 1016.9 |
| 20260508060525 | 12 | 237 | 0.0 | 3.2 | 0.00 | 0.00 | 0.00 | 77 | 1016.8 |
| 20260508060044 | 12 | 232 | 1.6 | 4.8 | 0.00 | 0.00 | 0.00 | 77 | 1016.9 |
| 20260508055525 | 12 | 0 | 1.6 | 4.8 | 0.00 | 0.00 | 0.00 | 77 | 1016.9 |
| 20260508055025 | 12 | 240 | 0.0 | 3.2 | 0.00 | 0.00 | 0.00 | 77 | 1017.0 |
| 20260508054548 | 12 | 246 | 0.0 | 3.2 | 0.00 | 0.00 | 0.00 | 76 | 1016.8 |
| 20260508054025 | 12 | 0 | 0.0 | 3.2 | 0.00 | 0.00 | 0.00 | 77 | 1017.0 |
| 20260508053530 | 12 | 0 | 0.0 | 1.6 | 0.00 | 0.00 | 0.00 | 76 | 1017.0 |
| 20260508053041 | 12 | 0 | 0.0 | 1.6 | 0.00 | 0.00 | 0.00 | 76 | 1016.8 |
| 20260508052525 | 13 | 0 | 0.0 | 1.6 | 0.00 | 0.00 | 0.00 | 76 | 1016.9 |
| 20260508052024 | 13 | 0 | 0.0 | 4.8 | 0.00 | 0.00 | 0.00 | 75 | 1016.9 |
| 20260508051542 | 13 | 241 | 0.0 | 4.8 | 0.00 | 0.00 | 0.00 | 75 | 1016.9 |
| 20260508051033 | 13 | 242 | 1.6 | 4.8 | 0.00 | 0.00 | 0.00 | 75 | 1016.9 |
| 20260508050527 | 13 | 242 | 1.6 | 4.8 | 0.00 | 0.00 | 0.00 | 75 | 1017.0 |
| 20260508050038 | 13 | 0 | 1.6 | 4.8 | 0.00 | 0.00 | 0.00 | 75 | 1017.0 |
| 20260508045524 | 13 | 0 | 0.0 | 3.2 | 0.00 | 0.00 | 0.00 | 74 | 1017.0 |
| 20260508045024 | 13 | 250 | 0.0 | 3.2 | 0.00 | 0.00 | 0.00 | 74 | 1017.1 |
| 20260508044546 | 13 | 234 | 0.0 | 6.4 | 0.00 | 0.00 | 0.00 | 74 | 1017.1 |
| 20260508044025 | 13 | 0 | 0.0 | 6.4 | 0.00 | 0.00 | 0.00 | 74 | 1017.0 |
| 20260508043524 | 13 | 254 | 1.6 | 6.4 | 0.00 | 0.00 | 0.00 | 73 | 1017.1 |
| 20260508043044 | 13 | 232 | 3.2 | 6.4 | 0.00 | 0.00 | 0.00 | 73 | 1017.1 |
| 20260508042524 | 13 | 252 | 0.0 | 3.2 | 0.00 | 0.00 | 0.00 | 73 | 1017.2 |
| 20260508042025 | 13 | 0 | 0.0 | 6.4 | 0.00 | 0.00 | 0.00 | 73 | 1017.1 |
| 20260508041540 | 13 | 274 | 0.0 | 6.4 | 0.00 | 0.00 | 0.00 | 73 | 1017.0 |
| 20260508041025 | 13 | 246 | 1.6 | 9.7 | 0.00 | 0.00 | 0.00 | 72 | 1017.0 |
| 20260508040524 | 14 | 235 | 1.6 | 9.7 | 0.00 | 0.00 | 0.00 | 72 | 1017.1 |
| 20260508040038 | 14 | 246 | 1.6 | 4.8 | 0.00 | 0.00 | 0.00 | 72 | 1017.1 |
| 20260508035524 | 14 | 250 | 1.6 | 4.8 | 0.00 | 0.00 | 0.00 | 72 | 1017.1 |